^^
Station Historical Data
Daily Summary for January 29, 2018 Units:  Metric    English   Both
« Previous Day
Next Day »
Daily Weekly Monthly Yearly Custom
  High: Low: Average:
Temperature: -17.8 °C 16.8 °C 25.2 °C
Dew Point: -17.8 °C -1.9 °C 5.6 °C
Humidity: Humidity% 14% 34%
Wind Speed: 0km/h 0km/h 2.3km/h
Wind Gust: 0km/h - -
Wind- - WSW
Pressure: 0 hPa 1001.2 hPa -
Precipitation: 0 mm    
Historical Graphs
 
 
Tabular Data for January 29, 2018
Time Temperature Dew Point Pressure Wind Wind Speed Wind Gust Humidity Rainfall Rate (Hourly) solar Conditions
-17.8 °C -17.8 °C 0 hPa Calm     Humidity% 0 mm SolarRadiationWatts/m^2 W/m2 Conditions
00:00 20.1 °C 12.6 °C 1006 hPa Calm   1.6 km/h 62% 0 mm 0.0 W/m2
00:05 19.9 °C 12.4 °C 1006.3 hPa Calm     62% 0 mm 0.0 W/m2
00:10 19.9 °C 12.6 °C 1006.3 hPa Calm   3.2 km/h 63% 0 mm 0.0 W/m2
00:15 19.8 °C 12.6 °C 1006.3 hPa Calm     63% 0 mm 0.0 W/m2
00:20 19.7 °C 12.5 °C 1006.3 hPa Calm   6.4 km/h 63% 0 mm 0.0 W/m2
00:25 19.7 °C 12.7 °C 1006.3 hPa Calm   6.4 km/h 64% 0 mm 0.0 W/m2
00:31 19.6 °C 12.6 °C 1006 hPa Calm   1.6 km/h 64% 0 mm 0.0 W/m2
00:36 19.6 °C 12.6 °C 1006 hPa North 3.2 km/h 3.2 km/h 64% 0 mm 0.0 W/m2
00:41 19.4 °C 12.4 °C 1006 hPa Calm     64% 0 mm 0.0 W/m2
00:47 19.4 °C 12.4 °C 1005.6 hPa Calm   1.6 km/h 64% 0 mm 0.0 W/m2
00:53 19.3 °C 12.6 °C 1005.6 hPa Calm     65% 0 mm 0.0 W/m2
00:58 19.2 °C 12.5 °C 1005.6 hPa Calm     65% 0 mm 0.0 W/m2
01:04 19.2 °C 12.5 °C 1005.6 hPa Calm     65% 0 mm 0.0 W/m2
01:09 19.1 °C 12.4 °C 1005.6 hPa Calm     65% 0 mm 0.0 W/m2
01:14 18.9 °C 12.2 °C 1005.6 hPa Calm   1.6 km/h 65% 0 mm 0.0 W/m2
01:20 18.8 °C 12.3 °C 1005.3 hPa Calm   1.6 km/h 66% 0 mm 0.0 W/m2
01:25 18.7 °C 12.2 °C 1005.3 hPa Calm     66% 0 mm 0.0 W/m2
01:31 18.7 °C 12.2 °C 1005.3 hPa Calm   3.2 km/h 66% 0 mm 0.0 W/m2
01:36 18.6 °C 12.1 °C 1005.3 hPa Calm   1.6 km/h 66% 0 mm 0.0 W/m2
01:41 18.5 °C 12.3 °C 1005 hPa Calm     67% 0 mm 0.0 W/m2
01:46 18.4 °C 12.2 °C 1005 hPa Calm     67% 0 mm 0.0 W/m2
01:51 18.4 °C 12.2 °C 1005 hPa Calm     67% 0 mm 0.0 W/m2
01:56 18.3 °C 12.1 °C 1005 hPa Calm   1.6 km/h 67% 0 mm 0.0 W/m2
02:01 18.2 °C 12.2 °C 1005 hPa Calm     68% 0 mm 0.0 W/m2
02:06 18.2 °C 12.2 °C 1004.6 hPa Calm     68% 0 mm 0.0 W/m2
02:11 18.1 °C 12.1 °C 1004.6 hPa Calm     68% 0 mm 0.0 W/m2
02:17 18.1 °C 12.1 °C 1004.6 hPa Calm     68% 0 mm 0.0 W/m2
02:22 17.9 °C 11.9 °C 1004.6 hPa Calm     68% 0 mm 0.0 W/m2
02:27 17.9 °C 11.9 °C 1004.3 hPa Calm     68% 0 mm 0.0 W/m2
02:33 17.8 °C 12 °C 1004.3 hPa Calm     69% 0 mm 0.0 W/m2
02:38 17.7 °C 11.7 °C 1004.3 hPa Calm     68% 0 mm 0.0 W/m2
02:43 17.6 °C 11.8 °C 1003.9 hPa Calm     69% 0 mm 0.0 W/m2
02:48 17.6 °C 11.8 °C 1003.9 hPa Calm     69% 0 mm 0.0 W/m2
02:53 17.4 °C 11.9 °C 1003.9 hPa Calm     70% 0 mm 0.0 W/m2
02:59 17.4 °C 11.9 °C 1003.9 hPa Calm     70% 0 mm 0.0 W/m2
03:04 17.4 °C 11.9 °C 1003.9 hPa Calm     70% 0 mm 0.0 W/m2
03:09 17.3 °C 11.8 °C 1003.9 hPa Calm   1.6 km/h 70% 0 mm 0.0 W/m2
03:14 17.2 °C 11.7 °C 1003.9 hPa Calm   1.6 km/h 70% 0 mm 0.0 W/m2
03:19 17.2 °C 11.7 °C 1003.9 hPa Calm     70% 0 mm 0.0 W/m2
03:24 17.1 °C 11.8 °C 1003.9 hPa Calm     71% 0 mm 0.0 W/m2
03:29 17 °C 11.7 °C 1003.9 hPa Calm   1.6 km/h 71% 0 mm 0.0 W/m2
03:34 17 °C 11.7 °C 1003.9 hPa Calm   1.6 km/h 71% 0 mm 0.0 W/m2
03:39 16.9 °C 11.6 °C 1003.9 hPa Calm   3.2 km/h 71% 0 mm 0.0 W/m2
03:45 16.9 °C 11.6 °C 1003.6 hPa Calm   1.6 km/h 71% 0 mm 0.0 W/m2
03:50 16.9 °C 11.6 °C 1003.6 hPa Calm     71% 0 mm 0.0 W/m2
03:55 16.9 °C 11.6 °C 1003.6 hPa Calm   1.6 km/h 71% 0 mm 0.0 W/m2
04:00 16.8 °C 11.7 °C 1003.9 hPa Calm   1.6 km/h 72% 0 mm 0.0 W/m2
04:05 16.8 °C 11.7 °C 1003.9 hPa Calm   1.6 km/h 72% 0 mm 0.0 W/m2
04:10 16.8 °C 11.7 °C 1003.9 hPa Calm     72% 0 mm 0.0 W/m2
04:15 16.8 °C 11.7 °C 1003.9 hPa Calm     72% 0 mm 0.0 W/m2
04:21 16.8 °C 11.7 °C 1003.9 hPa Calm   1.6 km/h 72% 0 mm 0.0 W/m2
04:26 16.8 °C 11.5 °C 1003.9 hPa Calm   1.6 km/h 71% 0 mm 0.0 W/m2
04:31 16.8 °C 10.9 °C 1003.6 hPa SSE 1.4 km/h 4.8 km/h 68% 0 mm 0.0 W/m2
04:36 16.8 °C 10.9 °C 1003.9 hPa Calm     68% 0 mm 0.0 W/m2
04:41 16.9 °C 10.7 °C 1003.6 hPa Calm     67% 0 mm 0.0 W/m2
04:46 16.9 °C 11 °C 1003.9 hPa Calm     68% 0 mm 0.0 W/m2
04:51 17.1 °C 10.9 °C 1003.9 hPa Calm     67% 0 mm 0.0 W/m2
04:56 17.1 °C 10.9 °C 1003.9 hPa Calm     67% 0 mm 0.0 W/m2
05:02 17.1 °C 11.1 °C 1003.9 hPa Calm     68% 0 mm 0.0 W/m2
05:07 17.2 °C 11.2 °C 1003.9 hPa Calm     68% 0 mm 0.0 W/m2
05:12 17.2 °C 11 °C 1003.9 hPa ESE 3.2 km/h 4.8 km/h 67% 0 mm 0.0 W/m2
05:17 17.3 °C 10.9 °C 1003.9 hPa Calm   3.2 km/h 66% 0 mm 0.0 W/m2
05:22 17.3 °C 10.2 °C 1003.9 hPa ESE 3.2 km/h 4.8 km/h 63% 0 mm 0.0 W/m2
05:27 17.3 °C 10.2 °C 1003.9 hPa Calm   1.6 km/h 63% 0 mm 0.0 W/m2
05:32 17.3 °C 10.2 °C 1003.9 hPa Calm   3.2 km/h 63% 0 mm 0.0 W/m2
05:37 17.3 °C 10.2 °C 1003.9 hPa Calm   3.2 km/h 63% 0 mm 0.0 W/m2
05:43 17.3 °C 10.4 °C 1004.3 hPa Calm     64% 0 mm 0.0 W/m2
05:48 17.4 °C 10.3 °C 1004.3 hPa Calm   3.2 km/h 63% 0 mm 0.0 W/m2
05:53 17.4 °C 10.3 °C 1004.3 hPa Calm   1.6 km/h 63% 0 mm 0.0 W/m2
05:58 17.4 °C 10.3 °C 1004.3 hPa ESE 1.4 km/h 3.2 km/h 63% 0 mm 0.0 W/m2
06:03 17.5 °C 10.1 °C 1004.3 hPa ESE 1.4 km/h 3.2 km/h 62% 0 mm 0.0 W/m2
06:08 17.5 °C 10.1 °C 1004.6 hPa Calm   1.6 km/h 62% 0 mm 0.0 W/m2
06:13 17.6 °C 10.5 °C 1004.6 hPa Calm   1.6 km/h 63% 0 mm 0.0 W/m2
06:18 17.6 °C 10.5 °C 1004.6 hPa Calm     63% 0 mm 0.0 W/m2
06:24 17.6 °C 10.2 °C 1004.6 hPa Calm     62% 0 mm 0.0 W/m2
06:29 17.5 °C 10.1 °C 1004.6 hPa Calm   3.2 km/h 62% 0 mm 7.0 W/m2
06:34 17.5 °C 9.9 °C 1005 hPa Calm     61% 0 mm 12.0 W/m2
06:39 17.6 °C 9.7 °C 1005 hPa Calm     60% 0 mm 16.0 W/m2
06:44 17.6 °C 9.7 °C 1005 hPa East 1.4 km/h 4.8 km/h 60% 0 mm 18.0 W/m2
06:49 17.6 °C 9.5 °C 1005.3 hPa Calm   3.2 km/h 59% 0 mm 21.0 W/m2
06:54 17.6 °C 9.2 °C 1005.3 hPa Calm   3.2 km/h 58% 0 mm 26.0 W/m2
06:59 17.6 °C 9.5 °C 1005.3 hPa Calm   1.6 km/h 59% 0 mm 32.0 W/m2
07:05 17.7 °C 9.6 °C 1005.3 hPa Calm     59% 0 mm 37.0 W/m2
07:10 17.7 °C 9.3 °C 1005.3 hPa Calm   3.2 km/h 58% 0 mm 42.0 W/m2
07:15 17.8 °C 9.4 °C 1005.6 hPa Calm     58% 0 mm 47.0 W/m2
07:20 17.8 °C 9.4 °C 1005.6 hPa Calm   1.6 km/h 58% 0 mm 47.0 W/m2
07:25 17.8 °C 9.2 °C 1005.6 hPa Calm   1.6 km/h 57% 0 mm 46.0 W/m2
07:30 17.9 °C 9.3 °C 1005.6 hPa Calm   1.6 km/h 57% 0 mm 51.0 W/m2
07:35 18.1 °C 9.4 °C 1005.6 hPa Calm   3.2 km/h 57% 0 mm 67.0 W/m2
07:40 18.2 °C 9 °C 1006 hPa Calm   3.2 km/h 55% 0 mm 72.0 W/m2
07:45 18.3 °C 8.8 °C 1006 hPa Calm     54% 0 mm 109.0 W/m2
07:50 18.4 °C 8.4 °C 1006 hPa Calm     52% 0 mm 104.0 W/m2
07:56 18.7 °C 8.6 °C 1006 hPa Calm     52% 0 mm 105.0 W/m2
08:01 18.9 °C 8 °C 1006 hPa Calm   1.6 km/h 49% 0 mm 111.0 W/m2
08:06 19.3 °C 8.6 °C 1006 hPa Calm     50% 0 mm 123.0 W/m2
08:11 19.6 °C 6.7 °C 1006 hPa Calm     43% 0 mm 229.0 W/m2
08:16 20 °C 6.3 °C 1006 hPa Calm   1.6 km/h 41% 0 mm 209.0 W/m2
08:21 20.4 °C 6 °C 1006.3 hPa Calm   1.6 km/h 39% 0 mm 394.0 W/m2
08:26 21.1 °C 5.8 °C 1006.3 hPa Calm     37% 0 mm 499.0 W/m2
08:31 21.7 °C 6 °C 1006.3 hPa Calm   3.2 km/h 36% 0 mm 617.0 W/m2
08:36 22.3 °C 5.7 °C 1006.3 hPa Calm   4.8 km/h 34% 0 mm 610.0 W/m2
08:42 23.1 °C 6.4 °C 1006.3 hPa West 1.4 km/h 3.2 km/h 34% 0 mm 629.0 W/m2
08:47 23.7 °C 5.6 °C 1006.3 hPa Calm   3.2 km/h 31% 0 mm 594.0 W/m2
08:52 24.1 °C 5.9 °C 1006.3 hPa WSW 1.4 km/h 8 km/h 31% 0 mm 570.0 W/m2
08:57 24.5 °C 5.3 °C 1006.3 hPa WSW 4.7 km/h 8 km/h 29% 0 mm 559.0 W/m2
09:02 24.8 °C 5.6 °C 1006.3 hPa WSW 6.4 km/h 12.9 km/h 29% 0 mm 564.0 W/m2
09:07 25.1 °C 5.8 °C 1006 hPa Calm   1.6 km/h 29% 0 mm 596.0 W/m2
09:12 25.5 °C 5.7 °C 1006.3 hPa West 3.2 km/h 4.8 km/h 28% 0 mm 608.0 W/m2
09:17 25.7 °C 5.3 °C 1006.3 hPa Calm   6.4 km/h 27% 0 mm 628.0 W/m2
09:22 26.1 °C 6.2 °C 1006 hPa Calm   4.8 km/h 28% 0 mm 654.0 W/m2
09:28 26.7 °C 5.6 °C 1006 hPa Calm   3.2 km/h 26% 0 mm 687.0 W/m2
09:33 27 °C 5.3 °C 1006 hPa Calm   3.2 km/h 25% 0 mm 698.0 W/m2
09:38 27.2 °C 4.9 °C 1006 hPa West 4.7 km/h 8 km/h 24% 0 mm 710.0 W/m2
09:43 27.1 °C 4.8 °C 1006 hPa Calm   6.4 km/h 24% 0 mm 707.0 W/m2
09:48 27.1 °C 4.8 °C 1006 hPa WNW 3.2 km/h 8 km/h 24% 0 mm 707.0 W/m2
09:53 27.4 °C 5.6 °C 1006 hPa SW 1.4 km/h 4.8 km/h 25% 0 mm 724.0 W/m2
09:58 27.6 °C 4 °C 1006 hPa WSW 7.9 km/h 11.3 km/h 22% 0 mm 763.0 W/m2
10:03 27.5 °C 3.9 °C 1006.3 hPa NNW 1.4 km/h 6.4 km/h 22% 0 mm 789.0 W/m2
10:09 27.7 °C 4 °C 1006.3 hPa Calm   3.2 km/h 22% 0 mm 749.0 W/m2
10:15 28 °C 4.3 °C 1006.3 hPa Calm   3.2 km/h 22% 0 mm 742.0 W/m2
10:20 28.2 °C 4.5 °C 1006.3 hPa NNW 4.7 km/h 8 km/h 22% 0 mm 772.0 W/m2
10:25 28.7 °C 4.2 °C 1006.3 hPa SW 1.4 km/h 6.4 km/h 21% 0 mm 795.0 W/m2
10:30 28.9 °C 5 °C 1006.3 hPa West 4.7 km/h 6.4 km/h 22% 0 mm 782.0 W/m2
10:35 29.1 °C 3.9 °C 1006.3 hPa Calm   3.2 km/h 20% 0 mm 816.0 W/m2
10:40 29.3 °C 4 °C 1006.3 hPa West 1.4 km/h 11.3 km/h 20% 0 mm 861.0 W/m2
10:45 29.7 °C 4.3 °C 1006 hPa NNE 7.9 km/h 8 km/h 20% 0 mm 889.0 W/m2
10:50 29.8 °C 4.4 °C 1006 hPa NE 3.2 km/h 11.3 km/h 20% 0 mm 904.0 W/m2
10:55 29.8 °C 4.4 °C 1006 hPa NW 3.2 km/h 9.7 km/h 20% 0 mm 904.0 W/m2
11:01 29.9 °C 4.5 °C 1006 hPa NNW 4.7 km/h 4.8 km/h 20% 0 mm 923.0 W/m2
11:06 30.1 °C 4.7 °C 1006 hPa NW 3.2 km/h 6.4 km/h 20% 0 mm 933.0 W/m2
11:12 30.4 °C 4.2 °C 1006 hPa North 4.7 km/h 11.3 km/h 19% 0 mm 947.0 W/m2
11:19 30.9 °C 3.8 °C 1006 hPa NNW 4.7 km/h 4.8 km/h 18% 0 mm 969.0 W/m2
11:24 31.1 °C 4 °C 1006 hPa Calm   3.2 km/h 18% 0 mm 997.0 W/m2
11:29 31.3 °C 4.1 °C 1006 hPa North 13 km/h 13 km/h 18% 0 mm 974.0 W/m2
11:34 31.6 °C 3.6 °C 1005.6 hPa North 4.7 km/h 9.7 km/h 17% 0 mm 1005.0 W/m2
11:39 31.5 °C 3.5 °C 1005.6 hPa Calm   8 km/h 17% 0 mm 997.0 W/m2
11:44 31.5 °C 3.5 °C 1005.6 hPa WNW 3.2 km/h 12.9 km/h 17% 0 mm 1009.0 W/m2
11:50 31.6 °C 4.4 °C 1005.6 hPa WNW 3.2 km/h 8 km/h 18% 0 mm 1000.0 W/m2
11:55 31.9 °C 3.8 °C 1005.6 hPa WNW 11.1 km/h 11.3 km/h 17% 0 mm 1020.0 W/m2
12:00 32.3 °C 4.1 °C 1005.3 hPa WNW 1.4 km/h 12.9 km/h 17% 0 mm 1028.0 W/m2
12:05 32.6 °C 4.4 °C 1005.3 hPa WSW 1.4 km/h 6.4 km/h 17% 0 mm 1030.0 W/m2
12:10 32.7 °C 3.6 °C 1005.3 hPa North 4.7 km/h 14.5 km/h 16% 0 mm 1032.0 W/m2
12:15 32.8 °C 3.7 °C 1005.3 hPa NW 4.7 km/h 8 km/h 16% 0 mm 1041.0 W/m2
12:20 32.8 °C 4.5 °C 1005 hPa WNW 1.4 km/h 4.8 km/h 17% 0 mm 1046.0 W/m2
12:25 32.8 °C 4.5 °C 1005 hPa East 3.2 km/h 3.2 km/h 17% 0 mm 1120.0 W/m2
12:30 33 °C 3.8 °C 1005 hPa NNW 11.1 km/h 12.9 km/h 16% 0 mm 411.0 W/m2
12:36 32.8 °C 3.7 °C 1005 hPa WNW 3.2 km/h 8 km/h 16% 0 mm 1157.0 W/m2
12:41 32.9 °C 4.6 °C 1005 hPa NW 11.1 km/h 12.9 km/h 17% 0 mm 1146.0 W/m2
12:46 33.2 °C 4 °C 1004.6 hPa WNW 4.7 km/h 4.8 km/h 16% 0 mm 1179.0 W/m2
12:52 33.4 °C 4.2 °C 1004.6 hPa NW 4.7 km/h 14.5 km/h 16% 0 mm 721.0 W/m2
12:57 33.4 °C 4.2 °C 1004.6 hPa WSW 4.7 km/h 11.3 km/h 16% 0 mm 1318.0 W/m2
13:02 33.3 °C 4.1 °C 1004.6 hPa Calm   12.9 km/h 16% 0 mm 802.0 W/m2
13:07 33.6 °C 4.3 °C 1004.3 hPa Calm   4.8 km/h 16% 0 mm 1366.0 W/m2
13:12 33.9 °C 4.6 °C 1004.3 hPa North 6.4 km/h 14.5 km/h 16% 0 mm 773.0 W/m2
13:17 34.1 °C 4.7 °C 1004.3 hPa NNW 7.9 km/h 12.9 km/h 16% 0 mm 710.0 W/m2
13:23 34.1 °C 4.7 °C 1004.3 hPa West 4.7 km/h 11.3 km/h 16% 0 mm 951.0 W/m2
13:28 34.3 °C 4 °C 1004.3 hPa North 4.7 km/h 9.7 km/h 15% 0 mm 654.0 W/m2
13:33 34.3 °C 4 °C 1003.9 hPa NE 6.4 km/h 9.7 km/h 15% 0 mm 489.0 W/m2
13:38 34 °C 3.7 °C 1003.9 hPa NNW 4.7 km/h 12.9 km/h 15% 0 mm 596.0 W/m2
13:43 33.7 °C 4.4 °C 1003.9 hPa NW 11.1 km/h 12.9 km/h 16% 0 mm 1111.0 W/m2
13:48 33.8 °C 3.6 °C 1003.9 hPa NNW 1.4 km/h 8 km/h 15% 0 mm 990.0 W/m2
13:53 34.1 °C 4.7 °C 1003.9 hPa NNW 7.9 km/h 12.9 km/h 16% 0 mm 464.0 W/m2
13:58 33.8 °C 4.5 °C 1003.6 hPa NW 1.4 km/h 11.3 km/h 16% 0 mm 568.0 W/m2
14:03 33.8 °C 4.5 °C 1003.6 hPa Calm   8 km/h 16% 0 mm 529.0 W/m2
14:09 33.8 °C 4.5 °C 1003.6 hPa West 7.9 km/h 8 km/h 16% 0 mm 541.0 W/m2
14:14 33.7 °C 4.4 °C 1003.6 hPa North 7.9 km/h 8 km/h 16% 0 mm 580.0 W/m2
14:19 33.7 °C 4.4 °C 1003.3 hPa SW 3.2 km/h 9.7 km/h 16% 0 mm 522.0 W/m2
14:24 33.4 °C 4.2 °C 1003.3 hPa ENE 6.4 km/h 11.3 km/h 16% 0 mm 471.0 W/m2
14:29 33.3 °C 4.1 °C 1003.3 hPa NNW 7.9 km/h 11.3 km/h 16% 0 mm 529.0 W/m2
14:34 33.3 °C 4.1 °C 1003.3 hPa SW 1.4 km/h 11.3 km/h 16% 0 mm 362.0 W/m2
14:39 33.2 °C 4.9 °C 1003.3 hPa Calm   8 km/h 17% 0 mm 313.0 W/m2
14:44 32.8 °C 4.5 °C 1003.3 hPa NW 4.7 km/h 14.5 km/h 17% 0 mm 295.0 W/m2
14:49 32.6 °C 4.4 °C 1003.3 hPa West 3.2 km/h 4.8 km/h 17% 0 mm 281.0 W/m2
14:54 32.4 °C 4.2 °C 1003.3 hPa Calm   17.7 km/h 17% 0 mm 267.0 W/m2
15:00 32.3 °C 4.1 °C 1002.9 hPa Calm   4.8 km/h 17% 0 mm 271.0 W/m2
15:05 32.2 °C 4.9 °C 1002.9 hPa WNW 6.4 km/h 11.3 km/h 18% 0 mm 244.0 W/m2
15:10 32.3 °C 5 °C 1002.9 hPa WSW 6.4 km/h 9.7 km/h 18% 0 mm 234.0 W/m2
15:15 32.1 °C 4.8 °C 1002.9 hPa Calm   11.3 km/h 18% 0 mm 232.0 W/m2
15:20 31.9 °C 5.4 °C 1002.9 hPa WSW 1.4 km/h 1.6 km/h 19% 0 mm 243.0 W/m2
15:25 32 °C 4.7 °C 1002.9 hPa Calm   8 km/h 18% 0 mm 271.0 W/m2
15:30 32 °C 5.5 °C 1002.9 hPa Calm   3.2 km/h 19% 0 mm 295.0 W/m2
15:36 32 °C 4.7 °C 1002.9 hPa NNW 3.2 km/h 4.8 km/h 18% 0 mm 309.0 W/m2
15:41 32.1 °C 4.8 °C 1002.9 hPa NNW 7.9 km/h 14.5 km/h 18% 0 mm 318.0 W/m2
15:46 32 °C 5.5 °C 1002.9 hPa Calm   8 km/h 19% 0 mm 302.0 W/m2
15:51 32 °C 4.7 °C 1002.6 hPa NNW 4.7 km/h 6.4 km/h 18% 0 mm 304.0 W/m2
15:56 32.1 °C 4.8 °C 1002.6 hPa NNW 6.4 km/h 11.3 km/h 18% 0 mm 343.0 W/m2
16:01 32.1 °C 4.8 °C 1002.6 hPa East 3.2 km/h 8 km/h 18% 0 mm 332.0 W/m2
16:06 32.1 °C 4.8 °C 1002.3 hPa NNE 9.7 km/h 16.1 km/h 18% 0 mm 295.0 W/m2
16:11 32.1 °C 4.8 °C 1002.3 hPa Calm   4.8 km/h 18% 0 mm 258.0 W/m2
16:16 32.1 °C 4.8 °C 1002.3 hPa Calm   3.2 km/h 18% 0 mm 223.0 W/m2
16:22 32.1 °C 4.8 °C 1002.3 hPa NNW 6.4 km/h 8 km/h 18% 0 mm 244.0 W/m2
16:27 32.1 °C 4.8 °C 1001.9 hPa NW 1.4 km/h 4.8 km/h 18% 0 mm 239.0 W/m2
16:32 32.1 °C 4 °C 1001.9 hPa Calm   6.4 km/h 17% 0 mm 272.0 W/m2
16:37 32.3 °C 5 °C 1001.9 hPa North 1.4 km/h 4.8 km/h 18% 0 mm 838.0 W/m2
16:42 32.6 °C 5.2 °C 1001.9 hPa SE 4.7 km/h 4.8 km/h 18% 0 mm 264.0 W/m2
16:47 33.2 °C 4.9 °C 1001.9 hPa SW 4.7 km/h 11.3 km/h 17% 0 mm 817.0 W/m2
16:52 33.7 °C 4.4 °C 1001.9 hPa WSW 7.9 km/h 19.3 km/h 16% 0 mm 814.0 W/m2
16:57 33.9 °C 4.6 °C 1001.9 hPa SSW 3.2 km/h 8 km/h 16% 0 mm 248.0 W/m2
17:02 33.6 °C 4.3 °C 1001.6 hPa SSE 1.4 km/h 4.8 km/h 16% 0 mm 260.0 W/m2
17:07 33.4 °C 4.2 °C 1001.6 hPa WSW 1.4 km/h 6.4 km/h 16% 0 mm 645.0 W/m2
17:12 33.5 °C 5.1 °C 1001.6 hPa WSW 6.4 km/h 14.5 km/h 17% 0 mm 234.0 W/m2
17:18 33.4 °C 4.2 °C 1001.6 hPa West 9.7 km/h 14.5 km/h 16% 0 mm 464.0 W/m2
17:23 33.1 °C 3.9 °C 1001.6 hPa Calm   6.4 km/h 16% 0 mm 193.0 W/m2
17:28 32.8 °C 4.5 °C 1001.6 hPa West 1.4 km/h 11.3 km/h 17% 0 mm 181.0 W/m2
17:33 32.6 °C 4.4 °C 1001.6 hPa West 1.4 km/h 8 km/h 17% 0 mm 162.0 W/m2
17:38 32.3 °C 4.1 °C 1001.6 hPa SSW 3.2 km/h 3.2 km/h 17% 0 mm 148.0 W/m2
17:43 32.1 °C 4 °C 1001.2 hPa Calm   4.8 km/h 17% 0 mm 139.0 W/m2
17:48 32 °C 4.7 °C 1001.6 hPa WSW 4.7 km/h 4.8 km/h 18% 0 mm 142.0 W/m2
17:53 31.8 °C 3.7 °C 1001.6 hPa SW 3.2 km/h 11.3 km/h 17% 0 mm 144.0 W/m2
17:59 31.7 °C 4.5 °C 1001.6 hPa Calm   4.8 km/h 18% 0 mm 118.0 W/m2
18:04 31.6 °C 4.4 °C 1001.6 hPa WSW 4.7 km/h 4.8 km/h 18% 0 mm 95.0 W/m2
18:09 31.5 °C 4.3 °C 1001.6 hPa WSW 1.4 km/h 8 km/h 18% 0 mm 74.0 W/m2
18:14 31.4 °C 4.2 °C 1001.6 hPa Calm   4.8 km/h 18% 0 mm 65.0 W/m2
18:19 31.3 °C 4.1 °C 1001.6 hPa Calm   1.6 km/h 18% 0 mm 60.0 W/m2
18:24 31.3 °C 4.1 °C 1001.6 hPa Calm   8 km/h 18% 0 mm 60.0 W/m2
18:29 31.2 °C 3.3 °C 1001.6 hPa Calm   3.2 km/h 17% 0 mm 70.0 W/m2
18:34 31.2 °C 4.1 °C 1001.6 hPa Calm   1.6 km/h 18% 0 mm 178.0 W/m2
18:36 31.3 °C 4.1 °C 1001.6 hPa Calm   4.8 km/h 18% 0 mm 200.0 W/m2
18:42 31.6 °C 3.6 °C 1001.6 hPa ESE 3.2 km/h 4.8 km/h 17% 0 mm 56.0 W/m2
18:47 31.6 °C 3.6 °C 1001.6 hPa SW 1.4 km/h 8 km/h 17% 0 mm 120.0 W/m2
18:52 31.6 °C 1.8 °C 1001.6 hPa WSW 3.2 km/h 11.3 km/h 15% 0 mm 111.0 W/m2
18:57 31.6 °C 1.8 °C 1001.9 hPa Calm   9.7 km/h 15% 0 mm 69.0 W/m2
19:02 31.4 °C 0.7 °C 1001.9 hPa SW 6.4 km/h 12.9 km/h 14% 0 mm 65.0 W/m2
19:07 31.1 °C 0.5 °C 1001.9 hPa SW 4.7 km/h 16.1 km/h 14% 0 mm 54.0 W/m2
19:12 30.8 °C 0.2 °C 1001.9 hPa SW 4.7 km/h 16.1 km/h 14% 0 mm 51.0 W/m2
19:17 30.5 °C 0.9 °C 1001.9 hPa WSW 16.3 km/h 19.3 km/h 15% 0 mm 39.0 W/m2
19:22 30.1 °C 0.6 °C 1002.3 hPa West 3.2 km/h 11.3 km/h 15% 0 mm 28.0 W/m2
19:27 29.7 °C 0.3 °C 1002.6 hPa West 7.9 km/h 25.7 km/h 15% 0 mm 19.0 W/m2
19:33 29.3 °C 0 °C 1002.6 hPa SW 7.9 km/h 12.9 km/h 15% 0 mm 14.0 W/m2
19:38 29 °C -0.3 °C 1002.9 hPa SW 6.4 km/h 25.7 km/h 15% 0 mm 7.0 W/m2
19:43 28.6 °C 0.3 °C 1002.9 hPa WSW 11.1 km/h 19.3 km/h 16% 0 mm 0.0 W/m2
19:48 28.4 °C 0.2 °C 1002.9 hPa WSW 3.2 km/h 14.5 km/h 16% 0 mm 0.0 W/m2
19:53 28.2 °C 0 °C 1002.9 hPa WSW 7.9 km/h 12.9 km/h 16% 0 mm 0.0 W/m2
19:58 27.9 °C -0.2 °C 1003.3 hPa WSW 6.4 km/h 16.1 km/h 16% 0 mm 0.0 W/m2
20:03 27.7 °C -0.4 °C 1003.3 hPa WNW 13 km/h 16.1 km/h 16% 0 mm 0.0 W/m2
20:08 27.4 °C -0.6 °C 1003.6 hPa SW 16.3 km/h 16.3 km/h 16% 0 mm 0.0 W/m2
20:13 27.2 °C -0.8 °C 1003.6 hPa SW 11.1 km/h 11.3 km/h 16% 0 mm 0.0 W/m2
20:19 27.1 °C -0.1 °C 1003.6 hPa WSW 4.7 km/h 8 km/h 17% 0 mm 0.0 W/m2
20:24 26.8 °C -0.3 °C 1003.9 hPa WSW 6.4 km/h 11.3 km/h 17% 0 mm 0.0 W/m2
20:29 26.7 °C -0.4 °C 1003.9 hPa WSW 14.3 km/h 17.7 km/h 17% 0 mm 0.0 W/m2
20:34 26.4 °C -0.6 °C 1004.3 hPa WSW 4.7 km/h 14.5 km/h 17% 0 mm 0.0 W/m2
20:39 26.3 °C -0.7 °C 1004.3 hPa WSW 3.2 km/h 8 km/h 17% 0 mm 0.0 W/m2
20:44 26.1 °C -0.9 °C 1004.3 hPa WSW 1.4 km/h 3.2 km/h 17% 0 mm 0.0 W/m2
20:49 25.9 °C -1 °C 1004.3 hPa Calm   1.6 km/h 17% 0 mm 0.0 W/m2
20:54 25.8 °C -1.1 °C 1004.6 hPa Calm   8 km/h 17% 0 mm 0.0 W/m2
20:59 25.7 °C -1.2 °C 1004.6 hPa Calm   1.6 km/h 17% 0 mm 0.0 W/m2
21:05 25.5 °C -1.3 °C 1004.6 hPa West 1.4 km/h 8 km/h 17% 0 mm 0.0 W/m2
21:10 25.3 °C -1.5 °C 1004.6 hPa Calm   1.6 km/h 17% 0 mm 0.0 W/m2
21:15 25.2 °C -1.6 °C 1005 hPa Calm     17% 0 mm 0.0 W/m2
21:20 25 °C -1 °C 1005 hPa Calm   3.2 km/h 18% 0 mm 0.0 W/m2
21:25 24.8 °C -1.9 °C 1005 hPa WSW 3.2 km/h 8 km/h 17% 0 mm 0.0 W/m2
21:30 24.7 °C -1.2 °C 1005.3 hPa SSW 3.2 km/h 6.4 km/h 18% 0 mm 0.0 W/m2
21:35 24.6 °C -1.3 °C 1005.3 hPa West 7.9 km/h 11.3 km/h 18% 0 mm 0.0 W/m2
21:40 24.4 °C -1.5 °C 1005.3 hPa WNW 3.2 km/h 4.8 km/h 18% 0 mm 0.0 W/m2
21:45 24.3 °C -1.5 °C 1005.3 hPa WSW 6.4 km/h 11.3 km/h 18% 0 mm 0.0 W/m2
21:51 24.2 °C -1.6 °C 1005.3 hPa West 7.9 km/h 11.3 km/h 18% 0 mm 0.0 W/m2
21:56 24.2 °C -1.6 °C 1005.3 hPa WSW 7.9 km/h 12.9 km/h 18% 0 mm 0.0 W/m2
22:02 24.1 °C -1.7 °C 1005.3 hPa NW 4.7 km/h 12.9 km/h 18% 0 mm 0.0 W/m2
22:07 24.1 °C -1 °C 1005.3 hPa SSW 3.2 km/h 9.7 km/h 19% 0 mm 0.0 W/m2
22:12 24 °C -1.1 °C 1005.6 hPa WSW 1.4 km/h 17.7 km/h 19% 0 mm 0.0 W/m2
22:17 23.9 °C -1.1 °C 1005.6 hPa West 1.4 km/h 3.2 km/h 19% 0 mm 0.0 W/m2
22:22 23.8 °C -1.2 °C 1005.6 hPa WSW 3.2 km/h 6.4 km/h 19% 0 mm 0.0 W/m2
22:27 23.7 °C -1.3 °C 1005.6 hPa Calm   4.8 km/h 19% 0 mm 0.0 W/m2
22:32 23.6 °C -1.4 °C 1005.6 hPa SW 3.2 km/h 8 km/h 19% 0 mm 0.0 W/m2
22:38 23.5 °C -0.8 °C 1005.6 hPa WSW 4.7 km/h 9.7 km/h 20% 0 mm 0.0 W/m2
22:43 23.4 °C -0.8 °C 1005.6 hPa Calm   1.6 km/h 20% 0 mm 0.0 W/m2
22:48 23.3 °C -0.9 °C 1006 hPa Calm   8 km/h 20% 0 mm 0.0 W/m2
22:53 23.2 °C -1 °C 1006 hPa Calm     20% 0 mm 0.0 W/m2
22:58 23.1 °C -1.1 °C 1006 hPa West 7.9 km/h 12.9 km/h 20% 0 mm 0.0 W/m2
23:03 22.9 °C -1.3 °C 1006 hPa Calm   8 km/h 20% 0 mm 0.0 W/m2
23:08 22.9 °C -0.6 °C 1006 hPa Calm   6.4 km/h 21% 0 mm 0.0 W/m2
23:13 22.8 °C -0.7 °C 1006 hPa Calm   8 km/h 21% 0 mm 0.0 W/m2
23:18 22.7 °C -0.8 °C 1006 hPa SW 1.4 km/h 4.8 km/h 21% 0 mm 0.0 W/m2
23:23 22.7 °C -0.8 °C 1006 hPa WSW 4.7 km/h 11.3 km/h 21% 0 mm 0.0 W/m2
23:28 22.6 °C -0.8 °C 1006 hPa West 4.7 km/h 4.8 km/h 21% 0 mm 0.0 W/m2
23:33 22.6 °C -0.8 °C 1006 hPa Calm   4.8 km/h 21% 0 mm 0.0 W/m2
23:38 22.4 °C -1 °C 1006 hPa Calm   4.8 km/h 21% 0 mm 0.0 W/m2
23:43 22.4 °C -1 °C 1006 hPa Calm   6.4 km/h 21% 0 mm 0.0 W/m2
23:48 22.3 °C -1.1 °C 1006 hPa Calm   1.6 km/h 21% 0 mm 0.0 W/m2
23:53 22.3 °C -1.1 °C 1006 hPa Calm   1.6 km/h 21% 0 mm 0.0 W/m2
23:58 22.2 °C -0.5 °C 1005.6 hPa Calm     22% 0 mm 0.0 W/m2
Olympia, Windhoek, Namibia
Compliments of Weather Underground - 3.25 mb